Location: Newark
(35.8833°N, 14.5000°E)
Time: 10:02:04
(UTC+00:00)

SR - All Passes

Search period start: 20 November 2019 00:00
Search period end: 30 November 2019 00:00
Orbit: 573 x 882 km, 66.7° (Epoch: 19 November)

Date Brightness Start Highest point End Pass type
(mag) Time Alt. Az. Time Alt. Az. Time Alt. Az.
20 Nov - 00:14:49 10° WNW 00:18:24 17° WSW 00:21:53 10° SW night (unlit)
20 Nov - 12:57:38 10° SSW 13:02:45 75° ESE 13:08:22 10° NNE daylight
20 Nov - 14:42:13 10° W 14:45:33 16° NW 14:49:03 10° N daylight
20 Nov - 21:41:44 10° N 21:47:03 33° NE 21:52:09 10° ESE night (unlit)
20 Nov - 23:23:53 10° NW 23:29:08 35° WSW 23:34:08 10° S night (unlit)
21 Nov - 12:08:41 10° S 12:13:18 35° ESE 12:18:18 10° NE daylight
21 Nov - 13:50:49 10° WSW 13:55:25 30° NW 14:00:20 10° N daylight
21 Nov - 20:52:52 10° N 20:56:57 19° NE 21:00:55 10° E night (unlit)
21 Nov - 22:33:48 10° NNW 22:39:40 71° WSW 22:45:13 10° SSE night (unlit)
22 Nov - 11:20:54 10° SE 11:24:03 16° ESE 11:27:22 10° ENE daylight
22 Nov - 13:00:23 10° SW 13:05:30 57° WNW 13:11:05 10° NNE daylight
22 Nov - 20:05:34 10° NNE 20:06:36 10° NE 20:07:39 10° NE night (unlit)
22 Nov - 21:44:09 10° NNW 21:50:00 59° ENE 21:55:32 10° SE night (unlit)
22 Nov - 23:27:44 10° WNW 23:31:31 18° WSW 23:35:11 10° SW night (unlit)
23 Nov - 12:10:42 10° SSW 12:15:49 71° ESE 12:21:26 10° NNE daylight
23 Nov - 13:55:02 10° W 13:58:35 17° NW 14:02:17 10° N daylight
23 Nov - 20:54:52 10° N 21:00:06 32° NE 21:05:06 10° ESE night (unlit)
23 Nov - 22:36:55 10° NW 22:42:14 37° WSW 22:47:17 10° S night (unlit)
24 Nov - 11:21:49 10° S 11:26:24 33° ESE 11:31:19 10° NE daylight
24 Nov - 13:03:45 10° WSW 13:08:27 31° NW 13:13:29 10° N daylight
24 Nov - 20:06:04 10° N 20:09:58 18° NE 20:13:46 10° E night (unlit)
24 Nov - 21:46:52 10° NNW 21:52:45 76° WSW 21:58:18 10° SSE night (unlit)
25 Nov - 10:34:11 10° SE 10:37:10 15° ESE 10:40:16 10° ENE daylight
25 Nov - 12:13:24 10° SW 12:18:33 61° WNW 12:24:11 10° NNE daylight
25 Nov - 14:01:31 10° NW 14:01:56 10° NW 14:02:22 10° NW daylight
25 Nov - 20:57:15 10° NNW 21:03:04 56° ENE 21:08:33 10° SE night (unlit)
25 Nov - 22:40:40 10° WNW 22:44:38 19° WSW 22:48:26 10° SSW night (unlit)
26 Nov - 11:23:46 10° SSW 11:28:54 66° ESE 11:34:31 10° NNE daylight
26 Nov - 13:07:52 10° W 13:11:35 18° NW 13:15:29 10° N daylight
26 Nov - 20:08:00 10° N 20:13:08 30° NE 20:18:03 10° ESE night (unlit)
26 Nov - 21:49:57 10° NW 21:55:20 39° WSW 22:00:26 10° S night (unlit)
27 Nov - 10:34:57 10° SSE 10:39:29 31° ESE 10:44:21 10° NE daylight
27 Nov - 12:16:41 10° WSW 12:21:29 33° NW 12:26:37 10° N daylight
27 Nov - 19:19:16 10° N 19:22:59 17° NE 19:26:37 10° E night (unlit)
27 Nov - 20:59:57 10° NNW 21:05:50 80° WSW 21:11:22 10° SSE night (unlit)
28 Nov - 09:47:30 10° SE 09:50:16 14° ESE 09:53:08 10° ENE daylight
28 Nov - 11:26:24 10° SW 11:31:36 65° WNW 11:37:17 10° NNE daylight
28 Nov - 13:13:36 10° NW 13:14:56 11° NW 13:16:18 10° NNW daylight
28 Nov - 20:10:22 10° NNW 20:16:08 53° ENE 20:21:33 10° SE night (unlit)
28 Nov - 21:53:37 10° WNW 21:57:44 20° WSW 22:01:42 10° SSW night (unlit)
29 Nov - 10:36:50 10° SSW 10:41:59 62° ESE 10:47:35 10° NE daylight
29 Nov - 12:20:43 10° W 12:24:36 20° NW 12:28:41 10° N daylight
29 Nov - 19:21:09 10° N 19:26:10 28° NE 19:30:59 10° ESE visible
29 Nov - 21:02:59 10° NW 21:08:26 42° WSW 21:13:33 10° S night (unlit)
